Location: Boćki
(52.6512°N, 23.0459°E)
Time: 00:14:47
(UTC+01:00)

ISS - Visible Passes

Search period start: 20 March 2019 00:00
Search period end: 30 March 2019 00:00
Orbit: 406 x 411 km, 51.6° (Epoch: 20 March)

Date Brightness Start Highest point End Pass type
(mag) Time Alt. Az. Time Alt. Az. Time Alt. Az.
22 Mar -1.8 19:39:31 10° SSW 19:40:47 18° SSW 19:40:47 18° SSW visible
23 Mar -2.2 18:49:08 10° S 18:51:30 18° SE 18:52:27 16° ESE visible
23 Mar -1.4 20:24:22 10° WSW 20:25:14 17° WSW 20:25:14 17° WSW visible
24 Mar -3.4 19:33:29 10° SW 19:36:37 42° SSE 19:36:42 42° SSE visible
25 Mar -2.8 18:42:43 10° SW 18:45:41 31° SSE 18:48:02 14° E visible
25 Mar -2.5 20:18:41 10° WSW 20:20:47 35° WSW 20:20:47 35° WSW visible
26 Mar -3.8 19:27:41 10° WSW 19:30:57 61° SSE 19:31:58 38° ESE visible
26 Mar -0.9 21:04:08 10° W 21:04:43 14° W 21:04:43 14° W visible
27 Mar -3.4 18:36:43 10° WSW 18:39:55 48° SSE 18:43:04 10° E visible
27 Mar -3.4 20:13:04 10° W 20:15:48 57° WSW 20:15:48 57° WSW visible
28 Mar -3.9 19:21:59 10° W 19:25:17 74° S 19:26:49 29° E visible
28 Mar -1.3 20:58:30 10° W 20:59:33 19° W 20:59:33 19° W visible
29 Mar -3.7 18:30:55 10° WSW 18:34:12 66° S 18:37:29 10° E visible
29 Mar -3.7 20:07:23 10° W 20:10:30 66° SW 20:10:30 66° SW visible
